カタログに戻る

STARLINK-34664

運用中通信VLEO
NORAD 64806·PAYLOAD·🇺🇸 United States

打ち上げ Jul 16, 2025 から Vandenberg Space Force Base

Loading…

次のパス (今後24時間)

TLE

最新Source: CelesTrak SupGP

元期: Sep 14, 2026, 22:59 UTC

1 64806C 25150S   26257.95812500 -.00052683  00000+0 -44153-2 0  2570
2 64806  70.0028  17.0480 0003094 271.7963  33.6156 14.98355114    10

AllMySatでSTARLINK-34664をリアルタイム追跡

Download on the App Store